GW3650 Weather Reports


time (UTC)temp
F
wind
direction
speed
knots
gust
knots
rain 1hr
in
rain 24hr
in
rain mn
in
humidity
%
barometer
mb
20260506163018 53 0 3.5 9.6 0.00 0.00 0.00 77 1032.0
20260506160017 53 0 3.5 9.6 0.00 0.00 0.00 76 1032.1
20260506153018 54 0 4.3 10.4 0.00 0.00 0.00 74 1031.8
20260506150017 54 0 3.5 8.7 0.00 0.00 0.00 72 1032.1
20260506143018 55 0 3.5 10.4 0.00 0.00 0.00 70 1032.2
20260506140018 55 0 2.6 9.6 0.00 0.00 0.00 69 1031.9
20260506133018 56 0 2.6 5.2 0.00 0.00 0.00 68 1031.6
20260506130018 57 0 2.6 7.0 0.00 0.00 0.00 67 1031.5
20260506123017 58 0 2.6 7.8 0.00 0.00 0.00 64 1031.2
20260506120018 59 135 4.3 10.4 0.00 0.00 0.00 63 1031.0
20260506113017 60 135 5.2 10.4 0.00 0.00 0.00 62 1030.8
20260506110038 62 135 5.2 9.6 0.00 0.00 0.00 59 1030.7
20260506103017 62 135 5.2 9.6 0.00 0.00 0.00 58 1030.5
20260506100018 63 135 3.5 7.0 0.00 0.00 0.00 57 1030.3
20260506093016 65 135 5.2 12.2 0.00 0.00 0.00 53 1029.9
20260506090016 67 135 7.0 13.9 0.00 0.00 0.00 51 1029.7
20260506083017 68 135 7.0 13.0 0.00 0.00 0.00 52 1029.7
20260506073037 68 135 7.8 20.9 0.00 0.00 0.00 54 1029.6
20260506043016 65 113 10.4 17.4 0.00 0.00 0.00 66 1030.8
20260506040016 62 113 7.8 14.8 0.00 0.00 0.00 71 1031.2
20260506033016 59 135 8.7 13.9 0.00 0.00 0.00 75 1031.6
20260506030016 59 135 8.7 16.5 0.00 0.00 0.00 76 1032.1
20260506023016 57 113 10.4 17.4 0.00 0.00 0.00 80 1032.3
20260506020016 56 135 10.4 15.6 0.00 0.00 0.00 81 1032.3
20260506013038 54 0 8.7 15.6 0.00 0.00 0.00 87 1032.2
20260506010018 53 0 8.7 14.8 0.00 0.00 0.00 89 1032.1
20260506003038 52 0 5.2 12.2 0.00 0.00 0.00 90 1031.7
20260506000038 51 0 3.5 7.8 0.00 0.00 0.00 91 1031.2
20260505233018 50 0 1.7 7.8 0.00 0.00 0.00 91 1030.9
20260505230018 49 0 2.6 7.0 0.00 0.00 0.00 90 1030.6
20260505223018 49 0 3.5 7.8 0.00 0.00 0.00 89 1030.3
20260505220018 49 0 2.6 7.8 0.00 0.00 0.00 88 1030.1
20260505213018 50 0 3.5 8.7 0.00 0.00 0.00 87 1030.0
20260505210038 50 0 1.7 4.3 0.00 0.00 0.00 86 1030.0
20260505203017 51 0 1.7 5.2 0.00 0.00 0.00 85 1029.7
20260505200017 51 0 2.6 7.8 0.00 0.00 0.00 85 1029.5
20260505193018 51 0 2.6 7.8 0.00 0.00 0.00 86 1029.5
20260505190018 51 0 1.7 5.2 0.00 0.00 0.00 86 1029.2
20260505183017 50 0 1.7 5.2 0.00 0.00 0.00 85 1029.3
20260505180017 50 0 1.7 3.5 0.00 0.00 0.00 84 1029.3
20260505173017 51 0 1.7 5.2 0.00 0.00 0.00 83 1029.4
20260505170018 52 0 1.7 7.0 0.00 0.00 0.00 83 1029.1